When you browse on this site, cookies collect data to enhance your experience and personalize the content and advertising you see.
Visit our Privacy Policy to learn more. By continuing to use the site, you agree to this use of cookies and data.
  • In Hungary
  • List of Countries
  • For 7 days
  • Water Temperature
  • Weather Map
  • News
  • Weather Widgets
  • user-avatar
    Login

    Hourly Weather Usovka

    Today, 22 October, Tuesday

    Time Temperature Precipitation Wind Pressure Humidity
    00:00 +11°C° 0 mm 6 mps 742 mmHg 84%
    01:00 +11°C° 0.2 mm 6 mps 742 mmHg 86%
    02:00 +12°C° 0.2 mm 5 mps 742 mmHg 87%
    03:00 +12°C° 0.2 mm 5 mps 742 mmHg 89%
    04:00 +11°C° 0.6 mm 4 mps 742 mmHg 91%
    05:00 +11°C° 0.6 mm 4 mps 742 mmHg 93%
    06:00 +11°C° 0.6 mm 3 mps 743 mmHg 95%
    07:00 +11°C° 0 mm 3 mps 743 mmHg 91%
    08:00 +11°C° 0 mm 3 mps 743 mmHg 87%
    09:00 +11°C° 0 mm 3 mps 744 mmHg 83%
    10:00 +11°C° 0 mm 3 mps 744 mmHg 80%
    11:00 +12°C° 0 mm 3 mps 744 mmHg 76%
    12:00 +12°C° 0 mm 3 mps 744 mmHg 72%
    13:00 +12°C° 0 mm 3 mps 744 mmHg 73%
    14:00 +12°C° 0 mm 3 mps 745 mmHg 73%
    15:00 +11°C° 0 mm 3 mps 745 mmHg 74%
    16:00 +10°C° 0 mm 2 mps 745 mmHg 78%
    17:00 +9°C° 0 mm 2 mps 745 mmHg 82%
    18:00 +10°C° 0 mm 1 mps 745 mmHg 86%
    19:00 +10°C° 0 mm 1 mps 745 mmHg 84%
    20:00 +10°C° 0 mm 1 mps 745 mmHg 82%
    21:00 +10°C° 0 mm 1 mps 745 mmHg 80%
    22:00 +9°C° 0 mm 2 mps 745 mmHg 79%
    23:00 +9°C° 0 mm 2 mps 745 mmHg 79%

    Tomorrow, 23 October, Wednesday

    Time Temperature Precipitation Wind Pressure Humidity
    00:00 +9°C° 0 mm 2 mps 745 mmHg 78%
    01:00 +8°C° 0 mm 2 mps 745 mmHg 79%
    02:00 +8°C° 0 mm 2 mps 745 mmHg 81%
    03:00 +8°C° 0 mm 2 mps 745 mmHg 82%
    04:00 +7°C° 0 mm 2 mps 744 mmHg 87%
    05:00 +7°C° 0 mm 3 mps 744 mmHg 91%
    06:00 +5°C° 0 mm 3 mps 743 mmHg 95%
    07:00 +6°C° 0 mm 4 mps 743 mmHg 90%
    08:00 +7°C° 0 mm 4 mps 743 mmHg 86%
    09:00 +8°C° 0 mm 5 mps 743 mmHg 81%
    10:00 +9°C° 0 mm 5 mps 742 mmHg 80%
    11:00 +10°C° 0 mm 6 mps 742 mmHg 78%
    12:00 +11°C° 0 mm 6 mps 742 mmHg 77%
    13:00 +11°C° 0.1 mm 6 mps 742 mmHg 79%
    14:00 +11°C° 0.1 mm 6 mps 741 mmHg 81%
    15:00 +12°C° 0.1 mm 5 mps 741 mmHg 84%
    16:00 +12°C° 0.5 mm 5 mps 741 mmHg 87%
    17:00 +12°C° 0.5 mm 5 mps 741 mmHg 90%
    18:00 +12°C° 0.5 mm 5 mps 741 mmHg 94%
    19:00 +12°C° 0 mm 4 mps 741 mmHg 94%
    20:00 +11°C° 0 mm 4 mps 741 mmHg 95%
    21:00 +11°C° 0 mm 3 mps 741 mmHg 95%
    22:00 +11°C° 0.1 mm 3 mps 741 mmHg 96%
    23:00 +12°C° 0.1 mm 2 mps 741 mmHg 96%

    Day after tomorrow, 24 October, Thursday

    Time Temperature Precipitation Wind Pressure Humidity
    00:00 +12°C° 0.1 mm 2 mps 742 mmHg 97%
    01:00 +12°C° 0 mm 2 mps 742 mmHg 95%
    02:00 +11°C° 0 mm 1 mps 742 mmHg 94%
    03:00 +11°C° 0 mm 1 mps 742 mmHg 93%
    04:00 +10°C° 0 mm 1 mps 742 mmHg 93%
    05:00 +10°C° 0 mm 1 mps 742 mmHg 93%
    06:00 +9°C° 0 mm 1 mps 742 mmHg 93%
    07:00 +10°C° 0 mm 1 mps 742 mmHg 90%
    08:00 +10°C° 0 mm 1 mps 743 mmHg 86%
    09:00 +11°C° 0 mm 1 mps 743 mmHg 83%
    10:00 +12°C° 0 mm 1 mps 743 mmHg 79%
    11:00 +13°C° 0 mm 1 mps 743 mmHg 74%
    12:00 +13°C° 0 mm 1 mps 743 mmHg 70%
    13:00 +13°C° 0 mm 1 mps 744 mmHg 70%
    14:00 +13°C° 0 mm 1 mps 744 mmHg 70%
    15:00 +13°C° 0 mm 1 mps 744 mmHg 69%
    16:00 +12°C° 0 mm 1 mps 744 mmHg 73%
    17:00 +12°C° 0 mm 1 mps 744 mmHg 77%
    18:00 +11°C° 0 mm 1 mps 744 mmHg 81%
    19:00 +10°C° 0 mm 1 mps 744 mmHg 83%
    20:00 +9°C° 0 mm 0 mps 744 mmHg 84%
    21:00 +8°C° 0 mm 0 mps 744 mmHg 85%
    22:00 +8°C° 0 mm 0 mps 744 mmHg 85%
    23:00 +8°C° 0 mm 0 mps 744 mmHg 85%

    25 October, Friday

    Time Temperature Precipitation Wind Pressure Humidity
    00:00 +8°C° 0 mm 0 mps 744 mmHg 85%
    01:00 +8°C° 0 mm 0 mps 744 mmHg 86%
    02:00 +8°C° 0 mm 0 mps 744 mmHg 86%
    03:00 +8°C° 0 mm 0 mps 745 mmHg 87%
    04:00 +8°C° 0 mm 0 mps 745 mmHg 87%
    05:00 +8°C° 0 mm 0 mps 745 mmHg 88%
    06:00 +8°C° 0 mm 0 mps 745 mmHg 88%
    07:00 +8°C° 0 mm 0 mps 745 mmHg 85%
    08:00 +9°C° 0 mm 0 mps 745 mmHg 83%
    09:00 +10°C° 0 mm 0 mps 745 mmHg 80%
    10:00 +10°C° 0 mm 0 mps 745 mmHg 75%
    11:00 +11°C° 0 mm 0 mps 746 mmHg 70%
    12:00 +12°C° 0 mm 0 mps 746 mmHg 66%
    13:00 +13°C° 0 mm 1 mps 746 mmHg 66%
    14:00 +13°C° 0 mm 1 mps 745 mmHg 67%
    15:00 +13°C° 0 mm 2 mps 745 mmHg 68%
    16:00 +12°C° 0 mm 1 mps 745 mmHg 73%
    17:00 +11°C° 0 mm 1 mps 746 mmHg 79%
    18:00 +10°C° 0 mm 1 mps 746 mmHg 84%
    19:00 +9°C° 0 mm 1 mps 746 mmHg 86%
    20:00 +8°C° 0 mm 0 mps 746 mmHg 87%
    21:00 +7°C° 0 mm 0 mps 746 mmHg 88%
    22:00 +7°C° 0 mm 0 mps 746 mmHg 89%
    23:00 +8°C° 0 mm 1 mps 746 mmHg 90%

    26 October, Saturday

    Time Temperature Precipitation Wind Pressure Humidity
    00:00 +8°C° 0 mm 1 mps 746 mmHg 91%
    01:00 +8°C° 0 mm 1 mps 746 mmHg 92%
    02:00 +8°C° 0 mm 1 mps 746 mmHg 93%
    03:00 +7°C° 0 mm 2 mps 746 mmHg 94%
    04:00 +7°C° 0 mm 2 mps 746 mmHg 95%
    05:00 +7°C° 0 mm 2 mps 746 mmHg 96%
    06:00 +7°C° 0 mm 2 mps 746 mmHg 97%
    07:00 +8°C° 0 mm 2 mps 746 mmHg 96%
    08:00 +9°C° 0 mm 3 mps 746 mmHg 94%
    09:00 +10°C° 0 mm 3 mps 746 mmHg 93%
    10:00 +11°C° 0 mm 3 mps 746 mmHg 88%
    11:00 +13°C° 0 mm 4 mps 746 mmHg 83%
    12:00 +14°C° 0 mm 4 mps 746 mmHg 77%
    13:00 +14°C° 0 mm 4 mps 745 mmHg 75%
    14:00 +14°C° 0 mm 4 mps 745 mmHg 73%
    15:00 +14°C° 0 mm 4 mps 744 mmHg 71%
    16:00 +13°C° 0 mm 4 mps 744 mmHg 71%
    17:00 +12°C° 0 mm 4 mps 744 mmHg 72%
    18:00 +11°C° 0 mm 4 mps 744 mmHg 72%
    19:00 +9°C° 0 mm 5 mps 744 mmHg 72%
    20:00 +9°C° 0 mm 5 mps 743 mmHg 71%
    21:00 +9°C° 0 mm 5 mps 743 mmHg 71%
    22:00 +9°C° 0 mm 5 mps 743 mmHg 70%
    23:00 +9°C° 0 mm 5 mps 743 mmHg 70%

    27 October, Sunday

    Time Temperature Precipitation Wind Pressure Humidity
    00:00 +8°C° 0 mm 5 mps 743 mmHg 69%
    01:00 +8°C° 0 mm 5 mps 742 mmHg 69%
    02:00 +8°C° 0 mm 5 mps 742 mmHg 68%
    03:00 +8°C° 0 mm 5 mps 742 mmHg 67%
    04:00 +8°C° 0 mm 5 mps 742 mmHg 67%
    05:00 +8°C° 0 mm 6 mps 741 mmHg 68%
    06:00 +7°C° 0 mm 6 mps 741 mmHg 68%
    07:00 +8°C° 0 mm 6 mps 741 mmHg 65%
    08:00 +9°C° 0 mm 6 mps 741 mmHg 63%
    09:00 +10°C° 0 mm 7 mps 740 mmHg 60%
    10:00 +11°C° 0 mm 7 mps 740 mmHg 56%
    11:00 +12°C° 0 mm 8 mps 740 mmHg 52%
    12:00 +13°C° 0 mm 8 mps 740 mmHg 49%
    13:00 +13°C° 0 mm 8 mps 739 mmHg 49%
    14:00 +14°C° 0 mm 7 mps 738 mmHg 50%
    15:00 +14°C° 0 mm 7 mps 738 mmHg 50%
    16:00 +12°C° 0 mm 7 mps 738 mmHg 53%
    17:00 +12°C° 0 mm 7 mps 737 mmHg 56%
    18:00 +11°C° 0 mm 7 mps 737 mmHg 59%
    19:00 +11°C° 0 mm 7 mps 737 mmHg 62%
    20:00 +11°C° 0 mm 7 mps 736 mmHg 64%
    21:00 +11°C° 0 mm 7 mps 736 mmHg 67%
    22:00 +10°C° 0 mm 7 mps 735 mmHg 69%
    23:00 +10°C° 0 mm 7 mps 735 mmHg 70%

    28 October, Monday

    Time Temperature Precipitation Wind Pressure Humidity
    00:00 +10°C° 0 mm 7 mps 734 mmHg 72%
    01:00 +10°C° 0 mm 7 mps 734 mmHg 73%
    02:00 +10°C° 0 mm 7 mps 733 mmHg 73%
    03:00 +10°C° 0 mm 7 mps 733 mmHg 74%
    04:00 +9°C° 0.8 mm 7 mps 733 mmHg 78%
    05:00 +9°C° 0.8 mm 7 mps 733 mmHg 82%
    06:00 +9°C° 0.8 mm 6 mps 733 mmHg 86%
    07:00 +8°C° 1.5 mm 6 mps 733 mmHg 88%
    08:00 +7°C° 1.5 mm 5 mps 733 mmHg 89%
    09:00 +7°C° 1.5 mm 4 mps 733 mmHg 90%
    10:00 +7°C° 0.2 mm 4 mps 734 mmHg 86%
    11:00 +7°C° 0.2 mm 4 mps 734 mmHg 81%
    12:00 +7°C° 0.2 mm 4 mps 734 mmHg 76%
    13:00 +7°C° 0 mm 4 mps 735 mmHg 73%
    14:00 +8°C° 0 mm 3 mps 735 mmHg 71%
    15:00 +8°C° 0 mm 3 mps 735 mmHg 69%
    16:00 +7°C° 0 mm 2 mps 735 mmHg 73%
    17:00 +6°C° 0 mm 2 mps 735 mmHg 78%
    18:00 +5°C° 0 mm 2 mps 735 mmHg 83%
    19:00 +5°C° 0 mm 2 mps 735 mmHg 84%
    20:00 +5°C° 0 mm 2 mps 735 mmHg 85%
    21:00 +3°C° 0 mm 3 mps 735 mmHg 87%
    22:00 +3°C° 0 mm 3 mps 734 mmHg 87%
    23:00 +3°C° 0 mm 3 mps 734 mmHg 87%
    Show more